RH
24 23 23 24 26 28 28 27 26 25 23 22 22 22 22 21 19 17 15 17 17 16 18 18 18 18 18 18 19 19 18 17 16 15 14 13 13 12 11 10 10 10 10 10 10 10 9
25 25 25 27 29 31 30 28 27 26 25 25 24 24 24 23 22 20 18 14 17 18 19 19 20 20 20 20 20 19 18 18 17 17 16 14 14 12 11 10 11 10 12 12 13 14 11
26 26 27 29 31 32 31 30 29 29 28 28 28 27 26 26 25 24 22 16 15 19 19 21 21 22 22 21 19 19 20 20 20 19 18 16 14 12 12 11 12 13 12 16 17 19 14
28 27 29 31 33 33 33 32 31 31 31 31 30 29 29 28 27 27 25 21 18 18 20 23 22 23 21 19 18 20 20 20 20 19 18 15 14 15 14 14 15 16 15 20 20 22 18
31 28 30 32 34 35 35 34 33 33 33 33 32 31 30 30 29 29 28 25 24 23 22 24 24 24 21 21 21 22 20 19 18 18 17 15 16 18 18 18 27 23 23 21 22 24 24
36 30 30 32 34 35 36 36 35 34 33 32 32 31 30 30 28 28 29 28 25 24 25 25 25 24 18 21 23 24 23 20 19 16 16 14 16 19 21 23 32 27 26 25 25 26 27
41 33 30 31 34 35 36 35 34 34 35 35 34 31 30 29 30 29 28 30 28 26 27 26 26 22 18 21 20 24 25 24 22 19 17 15 16 18 20 23 26 30 31 28 29 26 28
42 36 31 31 33 34 34 34 34 37 38 38 37 35 34 32 31 32 32 33 31 26 27 26 25 23 19 21 19 21 25 26 26 24 20 16 19 23 24 26 26 28 30 32 31 29 32
43 38 33 32 32 33 34 36 39 40 40 40 38 37 36 36 34 31 27 28 30 31 26 27 24 25 21 20 20 18 18 24 20 16 24 22 26 27 30 30 28 29 30 33 38 32 33
44 43 38 36 36 38 41 42 42 41 40 39 38 38 37 36 30 26 19 23 24 25 24 26 24 25 24 21 21 22 21 23 24 21 20 25 28 28 26 32 32 33 31 36 36 37 54
45 44 44 44 43 43 42 42 41 40 39 38 37 34 31 24 24 21 20 20 23 22 61 24 24 25 26 25 23 26 25 27 27 28 28 24 27 27 29 33 38 38 36 36 38 41 32
50 48 47 45 44 44 43 39 38 34 33 33 31 28 24 20 17 16 17 17 24 28 46 29 23 23 26 26 25 28 27 31 30 28 26 26 31 30 34 34 39 40 38 40 57 37 85
47 46 48 48 45 40 36 32 29 24 21 18 16 14 11 10 8 8 11 14 25 36 24 26 23 24 26 28 28 29 27 33 31 35 41 28 31 34 38 43 41 47 38 96 88 98 71
27 32 34 36 37 34 29 25 19 13 8 7 6 7 10 12 12 11 10 14 27 25 24 22 22 29 31 31 27 27 31 37 38 44 42 42 48 38 38 45 48 47 41 62 69 46 41
13 14 17 19 19 18 15 11 8 8 10 8 9 12 13 13 12 12 12 14 21 20 21 25 24 28 36 30 27 27 34 38 43 49 54 58 52 41 44 42 50 50 42 45 48 60 68
10 10 10 10 10 10 9 10 14 14 14 14 14 14 14 12 12 12 12 15 16 15 20 24 27 27 36 31 28 31 40 41 48 53 55 62 59 44 47 48 48 51 50 54 68 74 71
6 7 10 11 12 14 14 15 14 14 14 13 12 11 11 10 11 11 13 13 12 14 16 18 20 29 34 30 30 42 46 50 53 56 60 67 66 54 57 55 57 56 53 49 56 56 74
8 8 7 8 10 12 12 12 12 12 11 11 10 10 10 10 11 12 14 12 12 14 15 16 18 29 31 32 51 55 54 56 57 60 66 64 69 64 62 62 61 56 56 54 66 80 67
7 8 9 9 10 10 10 11 12 12 11 11 11 10 10 11 12 12 13 13 14 15 20 25 36 47 48 52 61 61 64 67 65 70 70 70 75 77 66 61 66 64 68 71 68 70 78
7 7 7 8 8 8 9 10 10 10 11 11 11 13 13 15 14 19 25 29 35 46 52 55 74 66 66 81 80 77 75 73 78 81 81 76 72 68 69 68 77 73 73 87 87 82 78
9 8 8 8 8 8 8 8 9 10 11 12 14 20 20 19 27 32 37 49 57 66 75 90 85 84 83 80 80 81 81 83 85 87 87 84 81 77 63 67 69 52 50 63 64 53 82
10 10 10 10 9 9 9 10 12 12 15 18 24 29 34 34 43 52 60 65 72 83 91 84 86 92 85 85 96 93 90 87 94 96 96 92 78 81 69 66 61 55 56 55 54 57 64
11 11 11 11 11 11 12 13 16 19 22 26 37 47 49 55 60 64 71 82 86 93 91 95 98 98 95 98 100 98 97 100 100 99 96 88 80 83 84 73 68 63 54 56 62 60 58
13 13 13 13 14 14 14 15 20 27 35 45 52 59 62 57 63 55 67 76 86 100 100 94 99 99 99 96 97 91 98 93 81 80 76 72 73 87 84 75 84 53 48 53 56 61 59
16 16 18 18 18 21 24 26 26 33 54 61 67 82 91 91 77 65 89 98 99 98 100 99 100 100 99 100 99 99 96 85 71 71 67 66 74 80 88 84 68 54 54 56 61 59 52
32 25 30 26 32 38 43 46 51 53 56 69 87 94 97 99 95 96 96 88 98 98 98 99 99 99 99 100 100 98 94 90 84 71 70 72 73 85 99 94 83 49 58 62 66 56 75
65 50 57 50 68 74 74 74 70 79 86 94 96 91 100 100 97 94 96 100 99 99 99 99 99 99 100 100 100 99 97 94 90 77 84 83 77 88 96 98 75 59 63 62 67 69 76
87 97 85 78 78 91 85 84 87 96 94 99 98 99 100 100 99 100 99 100 93 99 99 99 99 98 98 92 100 97 95 93 97 96 89 96 88 95 98 97 81 60 65 77 85 72 77
100 100 100 98 90 92 90 100 100 93 93 95 94 72 50 68 73 69 82 96 100 100 100 100 99 99 100 99 98 99 97 97 97 99 96 95 77 83 86 78 72 73 80 73 87 80 70
Wind_Speed
10 9 8 8 7 7 7 6 6 6 6 6 6 6 6 6 5 3 2 4 5 5 7 8 9 10 9 11 11 11 12 12 11 9 7 6 6 5 4 2 4 3 7 8 8 12 13
9 9 8 7 7 7 7 6 6 6 7 7 7 7 8 7 7 6 5 1 3 4 5 7 8 11 12 12 13 14 13 12 10 9 8 6 5 6 5 2 5 4 8 11 11 15 15
9 8 8 7 6 6 6 6 6 7 7 8 8 8 8 8 7 7 6 3 1 3 6 7 7 9 10 13 14 15 14 12 10 9 7 4 4 5 6 2 5 8 6 12 13 18 18
8 7 7 6 6 5 5 5 5 6 7 7 7 7 7 7 7 6 5 4 3 4 5 7 6 8 13 16 18 17 14 12 11 9 8 1 4 8 7 3 6 9 6 13 19 20 17
7 6 6 6 5 4 5 5 5 6 6 6 6 6 7 7 7 6 6 4 4 4 3 7 8 8 13 16 17 16 15 14 12 10 5 2 5 9 9 10 9 11 11 15 19 24 22
6 6 6 5 4 4 4 4 5 5 6 6 6 6 6 6 7 7 7 6 6 3 3 4 11 6 13 16 19 17 15 14 16 10 4 1 4 8 11 11 6 14 19 19 22 29 28
6 5 5 5 4 3 3 3 4 5 6 6 5 5 6 6 7 8 7 7 3 3 6 7 9 11 12 14 18 18 17 14 15 12 7 1 5 10 12 12 13 18 21 23 27 29 36
6 5 5 4 4 2 1 2 4 5 6 6 6 6 6 7 8 8 8 6 1 3 2 7 10 11 12 8 15 17 17 15 15 15 5 3 6 11 12 15 16 21 24 25 24 32 40
6 5 4 4 3 2 1 2 4 4 5 6 7 7 7 7 8 8 9 6 4 4 1 3 10 11 12 12 15 19 17 14 16 20 7 4 9 12 16 16 17 21 18 30 31 36 34
6 5 4 4 3 2 1 2 3 4 6 6 7 7 8 8 7 9 10 8 6 2 3 7 11 13 13 15 13 19 18 15 14 17 12 6 10 12 17 17 20 23 23 31 31 30 8
6 5 4 3 3 2 1 3 4 5 6 7 7 8 8 8 9 10 10 8 5 3 1 9 11 14 12 14 13 16 18 14 13 15 20 14 13 14 19 19 23 24 28 26 29 18 15
6 5 4 3 3 2 2 3 4 5 5 6 6 7 7 8 9 8 8 8 4 2 2 5 11 16 11 13 13 16 19 13 12 15 22 18 12 10 20 19 26 19 24 22 11 5 3
6 5 4 3 2 1 1 2 4 5 6 7 7 8 8 9 9 9 8 8 3 3 8 8 13 15 8 15 12 16 18 12 18 19 25 19 15 8 11 23 22 30 22 6 3 1 3
8 6 5 4 3 2 3 4 6 7 8 8 7 6 6 9 10 11 9 7 2 6 7 11 14 10 9 16 12 19 18 11 17 18 22 17 14 19 24 23 21 17 9 3 5 7 15
8 8 7 6 6 6 6 7 7 6 6 6 5 5 6 10 10 10 10 4 2 7 9 11 12 8 11 14 14 19 14 9 16 15 16 11 12 28 20 23 25 11 4 6 7 12 5
9 9 8 7 7 8 8 6 6 6 6 6 7 7 8 10 10 10 8 2 5 8 8 10 8 7 11 15 13 16 10 11 17 16 22 16 18 18 15 26 16 11 8 5 4 6 8
10 10 9 9 8 8 9 9 9 9 9 9 10 11 9 12 11 10 6 6 10 9 10 10 10 9 11 15 16 14 10 18 11 25 22 23 9 21 24 21 22 15 7 3 6 7 4
12 11 12 12 12 12 12 12 13 13 12 12 13 13 14 11 12 9 7 10 12 9 10 9 9 8 11 13 16 11 15 15 24 23 25 14 17 21 29 22 18 13 13 12 6 5 11
14 15 14 14 14 15 15 15 15 15 15 14 13 14 12 12 9 9 10 12 9 11 10 8 7 11 12 13 13 14 17 26 22 27 22 24 11 15 11 4 10 22 27 19 20 22 20
17 17 17 17 17 17 17 17 16 17 16 15 14 11 14 13 8 12 12 11 10 11 11 9 13 12 14 20 19 18 29 20 30 30 31 28 22 20 26 30 31 38 38 24 21 16 17
20 20 19 19 19 19 18 17 16 17 17 16 15 14 14 13 16 15 14 12 12 12 12 14 16 15 21 26 28 24 28 32 30 32 30 27 30 32 35 38 39 26 28 31 34 31 24
22 22 21 21 21 20 20 18 17 17 18 17 16 16 17 16 16 15 16 15 15 15 18 22 19 24 24 26 24 29 28 28 31 35 35 35 27 36 42 30 19 31 39 26 21 29 38
24 23 23 22 22 21 21 20 19 19 19 20 19 20 21 21 21 21 22 19 18 20 20 19 26 25 31 26 27 30 31 31 35 34 33 32 27 26 18 20 25 21 11 29 31 22 27
26 25 25 23 23 23 23 23 22 21 22 22 22 23 25 28 27 27 27 26 24 23 24 28 26 31 29 27 31 29 30 27 27 26 23 24 29 23 23 20 5 12 42 20 28 31 32
27 26 26 25 25 24 24 25 26 25 24 25 24 26 29 35 33 32 29 28 30 30 31 34 28 28 27 27 28 25 23 19 17 17 11 20 22 14 9 12 30 30 11 27 32 41 39
27 29 27 27 27 26 26 27 28 28 29 28 26 28 32 35 38 31 31 33 31 34 38 32 30 25 27 25 27 18 14 18 8 10 13 14 20 24 12 9 7 22 34 29 33 33 11
29 29 29 29 28 29 31 32 33 32 32 31 31 32 33 38 39 37 36 36 31 37 33 32 29 25 25 30 32 28 19 20 10 17 13 12 21 27 24 15 23 27 20 33 21 31 49
33 32 34 34 34 34 34 33 30 32 33 36 34 38 38 40 40 38 35 35 37 33 29 29 36 32 29 27 25 18 18 23 21 20 20 20 17 23 11 9 14 14 37 30 48 58 48
37 37 33 34 34 33 33 34 34 34 37 39 45 44 42 44 49 46 43 41 37 43 39 34 37 39 35 28 17 34 29 25 30 36 28 25 29 27 26 30 40 46 49 43 46 40 44
Wind_Direction
128 124 120 113 104 95 87 78 69 62 56 52 51 50 50 47 43 26 13 45 47 30 26 25 25 24 20 18 8 358 350 341 334 329 329 323 342 344 348 322 339 313 343 326 317 318 295
121 121 119 114 104 93 84 75 67 61 55 49 48 47 43 38 33 28 14 300 17 22 14 11 12 20 22 4 4 357 348 338 331 333 335 320 330 342 351 325 345 312 352 346 332 318 297
126 123 119 113 105 95 85 73 63 55 51 47 46 44 42 37 32 28 26 42 12 26 4 358 7 16 12 16 5 356 348 339 333 332 330 317 349 2 5 327 331 349 302 336 334 331 317
127 128 123 117 106 94 84 72 60 50 45 43 40 38 35 32 28 26 23 20 357 344 356 13 10 13 12 10 4 1 359 353 348 342 338 317 16 19 11 3 7 349 311 334 329 337 329
132 134 127 124 116 101 85 71 58 45 36 30 32 28 27 26 23 20 19 17 360 346 359 25 18 15 18 11 6 5 7 7 1 348 353 139 30 21 12 15 1 340 324 313 321 325 328
142 141 142 140 128 107 83 63 47 34 24 15 13 10 11 12 8 3 2 353 356 36 53 21 24 15 13 16 13 12 11 10 10 13 43 99 8 9 16 27 357 336 331 317 321 315 326
151 149 157 153 134 112 84 52 28 16 10 5 1 356 351 349 351 353 348 343 347 86 73 28 23 22 15 18 18 19 15 11 12 14 4 331 357 344 341 344 344 343 334 322 324 313 323
143 153 159 155 140 131 93 26 9 2 358 0 359 355 353 356 1 4 357 347 340 182 347 21 12 12 10 6 17 18 18 24 22 13 9 336 338 343 331 327 327 336 336 330 323 318 322
138 148 152 151 147 141 80 18 6 358 2 7 7 10 13 17 20 14 11 11 344 237 251 5 5 4 5 6 7 13 13 18 20 19 14 351 338 342 336 331 331 334 329 330 317 315 317
146 153 154 153 150 137 63 27 19 13 20 24 23 26 27 23 18 21 16 15 12 164 198 359 359 359 359 8 1 6 9 10 11 12 1 340 329 331 338 329 334 335 331 324 313 315 310
151 158 163 166 157 136 74 37 24 23 21 22 20 17 17 17 20 17 14 16 29 116 212 338 350 356 354 3 354 355 1 10 5 7 4 344 332 327 334 327 332 327 328 314 304 300 304
150 148 151 155 140 112 59 29 20 17 14 9 7 5 5 6 6 3 3 7 11 351 336 345 349 348 348 355 354 354 356 0 5 357 2 348 333 326 328 325 328 333 331 315 313 315 273
171 161 155 158 152 125 26 0 357 357 353 349 349 353 357 2 0 359 358 358 359 32 337 341 343 343 351 351 351 352 354 355 3 359 348 348 336 319 326 328 331 339 349 328 321 254 292
198 201 205 224 240 275 304 319 331 335 335 339 345 2 15 8 10 6 6 6 54 345 343 337 341 344 350 350 351 347 352 353 356 355 345 340 324 327 325 328 331 334 1 34 315 314 307
215 223 230 241 260 276 289 304 318 331 341 347 352 356 357 1 359 4 3 24 26 339 332 337 340 346 338 343 346 345 348 337 342 344 357 330 305 314 320 322 324 321 333 323 274 278 290
229 236 244 253 264 275 286 298 310 318 322 324 328 331 332 339 339 343 357 37 347 341 336 338 346 328 327 333 340 340 342 329 328 330 338 323 303 315 318 323 319 314 299 314 335 308 308
240 246 252 257 266 275 284 293 301 308 311 314 317 318 318 326 329 330 336 338 339 337 334 335 326 317 322 330 332 334 324 325 321 325 328 323 296 309 314 311 301 299 283 271 284 242 270
245 251 257 262 269 276 283 291 298 303 306 308 311 315 315 320 326 323 322 330 327 322 318 318 316 315 321 330 328 320 318 318 318 320 326 321 301 292 302 297 291 297 281 267 242 267 242
249 253 257 263 269 274 279 284 291 297 300 305 307 308 306 312 306 307 312 317 312 313 313 312 319 318 321 328 327 309 311 317 314 317 316 316 299 311 298 315 315 311 301 280 270 267 248
251 255 261 265 268 272 277 283 289 293 297 301 305 305 303 304 291 304 309 305 304 303 307 304 319 317 321 323 325 308 311 308 311 311 314 308 291 280 274 289 293 295 291 282 264 258 266
254 259 263 266 268 270 273 277 282 287 290 294 296 296 292 288 292 296 296 295 292 291 296 309 314 318 321 314 310 308 306 307 308 312 309 301 290 293 302 299 300 298 293 283 273 282 257
254 259 263 266 268 270 273 277 277 280 284 287 290 287 287 286 288 284 288 292 286 281 292 301 306 309 309 307 302 298 294 295 302 309 304 301 295 298 301 310 311 304 298 292 283 288 279
253 256 258 261 265 269 272 273 273 276 278 282 285 285 286 285 284 286 287 283 279 288 293 296 301 297 305 301 298 297 296 293 297 295 292 293 292 296 290 295 310 294 321 308 295 297 302
255 257 259 262 263 265 268 269 269 273 276 281 285 288 289 287 289 293 297 298 305 297 290 300 296 289 302 299 300 302 301 303 300 289 286 286 288 286 282 309 239 313 313 308 313 314 314
256 257 259 260 260 261 262 268 272 271 273 280 285 292 295 293 294 294 296 291 297 294 292 300 298 297 301 301 307 303 306 303 299 285 269 290 278 279 276 290 298 319 310 316 317 308 316
259 259 260 261 263 264 265 269 270 271 273 275 278 287 291 290 287 295 291 294 293 296 292 290 295 296 293 295 297 283 286 290 268 285 281 269 277 258 259 276 286 293 303 309 316 313 323
261 261 264 262 265 271 275 276 275 273 273 273 280 284 286 285 287 290 284 288 285 287 284 294 291 296 286 302 285 278 272 264 252 275 267 271 288 264 260 260 280 304 304 319 318 309 305
264 267 270 269 274 276 277 277 272 271 274 272 275 285 279 275 276 278 275 280 287 283 281 292 293 289 286 288 274 276 282 273 267 259 276 279 276 276 257 231 276 299 310 310 305 301 308
265 266 267 265 268 275 273 274 270 274 278 275 277 282 276 273 274 275 272 269 271 274 285 280 276 280 278 268 261 294 280 279 289 278 280 258 281 274 267 271 281 288 291 299 294 300 312